Overview Statistics Trail Chart Weather Telemetry Raw packets
 

This is the latest recevied weather packets stored in our database for station/object NI4CE-10. If no packets are shown the sender has not sent any weather packets the latest 10 day(s).

<< 57 58 59 60 61 62 63 >>
Time Temp. Humidity Pressure Rain* Wind** Luminosity Snow
1788439970 28.33° C 100% 1016.2 hPa 0.25 mm - - -
1788439849 27.78° C 100% 1016.1 hPa 0.25 mm - - -
1788439670 27.78° C 100% 1016.1 hPa 0.25 mm - - -
1788439535 26.67° C 100% 1016.2 hPa 0.25 mm - - -
1788439370 26.67° C 100% 1016.2 hPa 0.25 mm - - -
1788439228 26.11° C 100% 1016.1 hPa 0.25 mm - - -
1788439070 26.11° C 100% 1016.1 hPa 0.25 mm - - -
1788438770 26.11° C 100% 1016.1 hPa 0.25 mm - - -
1788438604 25.56° C 100% 1016.1 hPa 0.25 mm - - -
1788438470 25.56° C 100% 1016.1 hPa 0.25 mm - - -
1788438376 25.56° C 100% 1016.1 hPa 0.25 mm - - -
1788438170 25.56° C 100% 1016.1 hPa 0.25 mm - - -
1788437870 25.56° C 100% 1015.9 hPa 0.25 mm - - -
1788437570 25.56° C 100% 1015.9 hPa 0.25 mm - - -
1788437271 25.56° C 100% 1015.9 hPa 0 mm - - -
1788437106 25° C 100% 1015.8 hPa 0 mm - - -
1788436971 25° C 100% 1015.8 hPa 0 mm - - -
1788436671 25° C 100% 1015.6 hPa 0 mm - - -
1788436371 25° C 100% 1015.6 hPa 0 mm - - -
1788436233 25° C 100% 1015.5 hPa 0 mm - - -
1788436071 25° C 100% 1015.5 hPa 0 mm - - -
1788435943 25° C 100% 1015.3 hPa 0 mm - - -
1788435771 25° C 100% 1015.3 hPa 0 mm - - -
1788435471 25° C 100% 1015.3 hPa 0 mm - - -
1788435171 24.44° C 100% 1015.2 hPa 0 mm - - -

* Rain latest hour (hover to see other rain measurements)
** Current wind speed in m/s (hover to see current wind gust speed)